Simultaneous Nadir Overpasses (SNOs) Predictions

Prediction of SNOs between GOES-15 and METOP-A Satellite Orbit:

Table of predicted SNOs for the next 14.0 days since TLE Epoch: 2/27/2021
Index Date Time (GOES-15) GOES-15 Lat,Lon METOP-A Lat,Lon Distance(km) Time Diff (sec)
1 03/01/2021 04:48:18 -0.10,-128.19 -0.04,-127.91 31.93 80
2 03/02/2021 17:09:50 0.12,-128.31 1.02,-132.52 479.46 80
3 03/03/2021 16:46:31 0.11,-128.32 -0.09,-127.55 89.17 80
4 03/05/2021 05:08:10 -0.12,-128.26 -0.97,-132.17 445.17 80
5 03/06/2021 04:44:51 -0.10,-128.27 0.15,-127.20 123.02 80
6 03/07/2021 17:06:22 0.12,-128.38 0.88,-131.79 389.70 80
7 03/08/2021 16:43:03 0.11,-128.39 -0.23,-126.82 178.22 80
8 03/10/2021 05:04:42 -0.12,-128.32 -0.83,-131.45 356.88 80
9 03/11/2021 04:41:22 -0.11,-128.33 0.29,-126.47 211.10 80
10 03/12/2021 17:02:55 0.12,-128.43 0.68,-131.08 301.74 80
